PBD275 UWWW-UUWW

Flight info

Callsign PBD275
Flight time 1h 32m
Altitude 38000
Route REDMI2Y REDMI T173 BMK T750 OKSUD T787 OTKOL T784 LARNO T291 URIDU L158 DIMGI DIMGI3A
Aircraft B738/M-SDE2E3FGHIRWXY/LB1

Departure

Time 2026-04-27 15:52
Airport Kurumoch International Airport (UWWW)

Arrival

Time 2026-04-27 17:24
Airport Vnukovo International Airport (UUWW)
Time Latitude Longitude Altitude Speed Heading
2026-04-27 15:19 53.51154 50.15879 489 ft 0 kts 330°
2026-04-27 15:41 53.51154 50.15880 489 ft 0 kts 330°
2026-04-27 15:41 53.51153 50.15881 489 ft 1 kts 330°
2026-04-27 15:41 53.51140 50.15892 489 ft 2 kts 331°
2026-04-27 15:42 53.51127 50.15905 489 ft 2 kts 331°
2026-04-27 15:42 53.51114 50.15917 489 ft 2 kts 330°
2026-04-27 15:42 53.51100 50.15924 489 ft 2 kts
2026-04-27 15:42 53.51085 50.15917 489 ft 2 kts 33°
2026-04-27 15:43 53.51075 50.15902 489 ft 0 kts 58°
2026-04-27 15:43 53.51072 50.15892 489 ft 1 kts 62°
2026-04-27 15:43 53.51072 50.15890 489 ft 0 kts 62°
2026-04-27 15:45 53.51075 50.15900 489 ft 0 kts 62°
2026-04-27 15:47 53.51078 50.15908 489 ft 2 kts 61°
2026-04-27 15:47 53.51095 50.15962 489 ft 7 kts 61°
2026-04-27 15:47 53.51127 50.16060 489 ft 11 kts 62°
2026-04-27 15:47 53.51173 50.16201 489 ft 15 kts 61°
2026-04-27 15:48 53.51231 50.16383 489 ft 19 kts 62°
2026-04-27 15:48 53.51304 50.16606 489 ft 23 kts 62°
2026-04-27 15:48 53.51376 50.16827 489 ft 14 kts 61°
2026-04-27 15:49 53.51392 50.16877 489 ft 0 kts 62°
2026-04-27 15:50 53.51393 50.16881 489 ft 1 kts 62°
2026-04-27 15:50 53.51405 50.16919 489 ft 5 kts 62°
2026-04-27 15:50 53.51426 50.16987 489 ft 7 kts 62°
2026-04-27 15:50 53.51432 50.17083 489 ft 9 kts 125°
2026-04-27 15:51 53.51366 50.17136 489 ft 12 kts 160°
2026-04-27 15:51 53.51108 50.17286 490 ft 74 kts 160°
2026-04-27 15:51 53.50402 50.17714 490 ft 136 kts 161°
2026-04-27 15:51 53.49412 50.18321 904 ft 152 kts 167°
2026-04-27 15:52 53.48453 50.18896 1652 ft 151 kts 167°
2026-04-27 15:52 53.47469 50.19501 2317 ft 152 kts 170°
2026-04-27 15:52 53.46427 50.20107 2758 ft 165 kts 170°
2026-04-27 15:52 53.45301 50.20742 3187 ft 179 kts 169°
2026-04-27 15:53 53.44069 50.21474 3595 ft 197 kts 168°
2026-04-27 15:53 53.42712 50.21990 4186 ft 198 kts 185°
2026-04-27 15:53 53.41415 50.21676 4997 ft 189 kts 202°
2026-04-27 15:53 53.40263 50.20683 5629 ft 191 kts 221°
2026-04-27 15:54 53.39384 50.18952 6086 ft 205 kts 239°
2026-04-27 15:54 53.38823 50.16674 6713 ft 212 kts 248°
2026-04-27 15:54 53.38342 50.14354 7422 ft 216 kts 248°
2026-04-27 15:54 53.37843 50.11997 8224 ft 216 kts 248°
2026-04-27 15:55 53.37570 50.09529 8891 ft 227 kts 265°
2026-04-27 15:55 53.37740 50.07765 9394 ft 235 kts 279°
2026-04-27 15:55 53.38829 50.04545 10301 ft 256 kts 306°
2026-04-27 15:55 53.40410 50.02802 10960 ft 277 kts 330°
2026-04-27 15:56 53.42265 50.01702 11621 ft 285 kts 334°
2026-04-27 15:56 53.44147 50.00632 12261 ft 290 kts 333°
2026-04-27 15:56 53.46064 49.99500 12916 ft 296 kts 333°
2026-04-27 15:56 53.48014 49.98330 13586 ft 300 kts 332°
2026-04-27 15:57 53.50005 49.97131 14242 ft 306 kts 332°
2026-04-27 15:57 53.52004 49.95924 14819 ft 314 kts 332°
2026-04-27 15:57 53.54050 49.94552 15376 ft 317 kts 324°
2026-04-27 15:57 53.55866 49.92549 16015 ft 306 kts 307°
2026-04-27 15:58 53.57289 49.89893 16339 ft 311 kts 296°
2026-04-27 15:58 53.58598 49.86938 16738 ft 323 kts 295°
2026-04-27 15:58 53.59986 49.83806 17043 ft 340 kts 296°
2026-04-27 15:58 53.61456 49.80557 17350 ft 357 kts 297°
2026-04-27 15:59 53.62982 49.77197 17681 ft 371 kts 297°
2026-04-27 15:59 53.64591 49.73655 18039 ft 385 kts 297°
2026-04-27 15:59 53.66262 49.69965 18273 ft 402 kts 298°
2026-04-27 15:59 53.67969 49.66203 18820 ft 408 kts 298°
2026-04-27 16:00 53.69707 49.62373 19470 ft 412 kts 297°
2026-04-27 16:00 53.70863 49.59827 19964 ft 412 kts 297°
2026-04-27 16:00 53.73200 49.54652 20744 ft 418 kts 297°
2026-04-27 16:00 53.74968 49.50732 21328 ft 421 kts 296°
2026-04-27 16:01 53.76747 49.46767 21866 ft 425 kts 296°
2026-04-27 16:01 53.78538 49.42770 22304 ft 432 kts 296°
2026-04-27 16:01 53.80351 49.38717 22847 ft 435 kts 296°
2026-04-27 16:01 53.82193 49.34599 23356 ft 438 kts 295°
2026-04-27 16:02 53.84079 49.30373 23848 ft 442 kts 295°
2026-04-27 16:02 53.85931 49.26214 24304 ft 446 kts 295°
2026-04-27 16:02 53.87810 49.21994 24821 ft 449 kts 295°
2026-04-27 16:02 53.89679 49.17783 25256 ft 452 kts 295°
2026-04-27 16:03 53.91579 49.13496 25683 ft 456 kts 295°
2026-04-27 16:03 53.93496 49.09170 26253 ft 456 kts 296°
2026-04-27 16:03 53.95370 49.04876 26597 ft 459 kts 294°
2026-04-27 16:03 53.97167 49.00348 27061 ft 457 kts 292°
2026-04-27 16:04 53.98881 48.95818 27446 ft 460 kts 292°
2026-04-27 16:04 54.00588 48.91247 27855 ft 463 kts 292°
2026-04-27 16:04 54.02315 48.86628 28246 ft 467 kts 292°
2026-04-27 16:04 54.04073 48.81941 28664 ft 468 kts 292°
2026-04-27 16:05 54.05852 48.77219 29012 ft 471 kts 292°
2026-04-27 16:05 54.07625 48.72499 29265 ft 475 kts 293°
2026-04-27 16:05 54.09415 48.67750 29813 ft 471 kts 293°
2026-04-27 16:05 54.11200 48.63026 30319 ft 468 kts 293°
2026-04-27 16:06 54.12956 48.58359 30658 ft 468 kts 294°
2026-04-27 16:06 54.14717 48.53663 31019 ft 468 kts 294°
2026-04-27 16:06 54.16462 48.49008 31333 ft 469 kts 294°
2026-04-27 16:06 54.18221 48.44295 31592 ft 470 kts 294°
2026-04-27 16:07 54.19972 48.39614 32068 ft 466 kts 295°
2026-04-27 16:07 54.21720 48.34930 32383 ft 465 kts 294°
2026-04-27 16:07 54.23481 48.30200 32685 ft 465 kts 294°
2026-04-27 16:07 54.25225 48.25503 33014 ft 464 kts 294°
2026-04-27 16:08 54.26957 48.20807 33278 ft 465 kts 294°
2026-04-27 16:08 54.28641 48.16077 33658 ft 463 kts 293°
2026-04-27 16:08 54.30281 48.11366 34058 ft 460 kts 294°
2026-04-27 16:08 54.31923 48.06616 34358 ft 460 kts 294°
2026-04-27 16:09 54.33540 48.01936 34655 ft 460 kts 294°
2026-04-27 16:09 54.36798 47.92505 35252 ft 460 kts 294°
2026-04-27 16:09 54.38417 47.87811 35529 ft 460 kts 295°
2026-04-27 16:10 54.41653 47.78415 36034 ft 460 kts 295°
2026-04-27 16:10 54.44895 47.68977 36484 ft 461 kts 295°
2026-04-27 16:11 54.46522 47.64227 36721 ft 461 kts 295°
2026-04-27 16:11 54.49757 47.54758 37185 ft 461 kts 295°
2026-04-27 16:12 54.53005 47.45213 37571 ft 461 kts 296°
2026-04-27 16:12 54.54626 47.40432 37602 ft 463 kts 296°
2026-04-27 16:13 54.59486 47.26058 37594 ft 459 kts 295°
2026-04-27 16:13 54.64281 47.11794 37589 ft 459 kts 295°
2026-04-27 16:14 54.70614 46.92649 37587 ft 462 kts 294°
2026-04-27 16:15 54.76870 46.73212 37569 ft 460 kts 295°
2026-04-27 16:16 54.83515 46.54179 37560 ft 466 kts 303°
2026-04-27 16:17 54.91514 46.36467 37535 ft 467 kts 304°
2026-04-27 16:18 54.99583 46.18613 37529 ft 465 kts 303°
2026-04-27 16:19 55.03587 46.09684 37516 ft 467 kts 304°
2026-04-27 16:20 55.11590 45.91736 37491 ft 466 kts 304°
2026-04-27 16:21 55.17519 45.78348 37495 ft 467 kts 304°
2026-04-27 16:22 55.25402 45.60437 37488 ft 466 kts 304°
2026-04-27 16:22 55.31340 45.46859 37495 ft 467 kts 304°
2026-04-27 16:23 55.37248 45.33273 37478 ft 468 kts 303°
2026-04-27 16:24 55.41195 45.24155 37467 ft 468 kts 303°
2026-04-27 16:25 55.49096 45.05803 37446 ft 467 kts 303°
2026-04-27 16:26 55.56144 44.86798 37422 ft 460 kts 286°
2026-04-27 16:26 55.57278 44.75841 37421 ft 453 kts 271°
2026-04-27 16:27 55.57598 44.64688 37414 ft 452 kts 269°
2026-04-27 16:28 55.58231 44.36966 37415 ft 452 kts 270°
2026-04-27 16:29 55.58837 44.09172 37405 ft 451 kts 269°
2026-04-27 16:30 55.59292 43.86995 37386 ft 454 kts 271°
2026-04-27 16:31 55.61778 43.70836 37371 ft 463 kts 295°
2026-04-27 16:31 55.64946 43.60914 37357 ft 464 kts 298°
2026-04-27 16:32 55.69836 43.46063 37346 ft 465 kts 298°
2026-04-27 16:33 55.74675 43.31161 37335 ft 465 kts 297°
2026-04-27 16:33 55.77791 43.21133 37333 ft 463 kts 292°
2026-04-27 16:34 55.79797 43.10412 37333 ft 458 kts 277°
2026-04-27 16:34 55.80582 42.99234 37325 ft 457 kts 274°
2026-04-27 16:35 55.81187 42.87947 37307 ft 457 kts 274°
2026-04-27 16:36 55.82088 42.71114 37296 ft 457 kts 274°
2026-04-27 16:36 55.82691 42.59829 37295 ft 458 kts 274°
2026-04-27 16:37 55.83288 42.48542 37292 ft 458 kts 274°
2026-04-27 16:37 55.83876 42.37268 37285 ft 457 kts 274°
2026-04-27 16:38 55.84451 42.26069 37271 ft 451 kts 273°
2026-04-27 16:38 55.84733 42.20542 37253 ft 439 kts 273°
2026-04-27 16:38 55.85001 42.15228 37256 ft 437 kts 273°
2026-04-27 16:39 55.85538 42.04334 37267 ft 445 kts 273°
2026-04-27 16:39 55.86073 41.93309 37262 ft 452 kts 273°
2026-04-27 16:40 55.86612 41.82081 37266 ft 459 kts 274°
2026-04-27 16:40 55.86693 41.70792 37255 ft 459 kts 266°
2026-04-27 16:41 55.86318 41.59430 37256 ft 456 kts 265°
2026-04-27 16:41 55.85926 41.48166 37245 ft 456 kts 266°
2026-04-27 16:42 55.85547 41.36947 37238 ft 457 kts 266°
2026-04-27 16:42 55.85165 41.25541 37246 ft 458 kts 265°
2026-04-27 16:43 55.84783 41.14240 37222 ft 458 kts 265°
2026-04-27 16:43 55.84393 41.02932 37243 ft 457 kts 265°
2026-04-27 16:44 55.83995 40.91664 37225 ft 458 kts 265°
2026-04-27 16:44 55.83586 40.80367 37233 ft 457 kts 265°
2026-04-27 16:45 55.83167 40.69042 37216 ft 456 kts 265°
2026-04-27 16:45 55.82957 40.63467 36992 ft 451 kts 265°
2026-04-27 16:45 55.82743 40.57936 36659 ft 445 kts 265°
2026-04-27 16:45 55.82525 40.52441 36169 ft 444 kts 265°
2026-04-27 16:46 55.82301 40.46938 35555 ft 446 kts 265°
2026-04-27 16:46 55.82073 40.41388 34862 ft 449 kts 265°
2026-04-27 16:46 55.81842 40.35840 34106 ft 454 kts 265°
2026-04-27 16:46 55.81601 40.30087 33290 ft 457 kts 265°
2026-04-27 16:47 55.81365 40.24498 32538 ft 457 kts 265°
2026-04-27 16:47 55.81124 40.18866 31940 ft 454 kts 265°
2026-04-27 16:47 55.80895 40.13554 31395 ft 450 kts 265°
2026-04-27 16:47 55.80653 40.08005 30835 ft 446 kts 265°
2026-04-27 16:48 55.80427 40.02878 30377 ft 439 kts 265°
2026-04-27 16:48 55.80205 39.97879 29810 ft 435 kts 265°
2026-04-27 16:48 55.80075 39.94981 29503 ft 430 kts 266°
2026-04-27 16:49 55.79592 39.84339 28361 ft 414 kts 266°
2026-04-27 16:49 55.79351 39.79322 28035 ft 399 kts 265°
2026-04-27 16:49 55.79055 39.74484 27726 ft 385 kts 264°
2026-04-27 16:49 55.78737 39.69794 27351 ft 375 kts 264°
2026-04-27 16:50 55.78426 39.65306 27276 ft 367 kts 264°
2026-04-27 16:50 55.78112 39.60739 27232 ft 372 kts 265°
2026-04-27 16:50 55.77800 39.56162 27235 ft 377 kts 265°
2026-04-27 16:50 55.77483 39.51527 27227 ft 381 kts 265°
2026-04-27 16:51 55.77161 39.46830 27228 ft 383 kts 265°
2026-04-27 16:51 55.76836 39.42104 27233 ft 386 kts 265°
2026-04-27 16:51 55.76513 39.37427 27245 ft 385 kts 265°
2026-04-27 16:51 55.76180 39.32667 27231 ft 385 kts 264°
2026-04-27 16:52 55.75846 39.27911 27233 ft 386 kts 265°
2026-04-27 16:52 55.75515 39.23227 27245 ft 386 kts 264°
2026-04-27 16:52 55.75178 39.18483 27227 ft 386 kts 265°
2026-04-27 16:52 55.74843 39.13779 27253 ft 386 kts 265°
2026-04-27 16:53 55.74503 39.09036 27255 ft 386 kts 265°
2026-04-27 16:53 55.74160 39.04280 27243 ft 386 kts 265°
2026-04-27 16:53 55.73818 38.99571 27228 ft 387 kts 265°
2026-04-27 16:53 55.73521 38.95486 27235 ft 387 kts 265°
2026-04-27 16:54 55.73213 38.91311 27241 ft 387 kts 265°
2026-04-27 16:54 55.72846 38.86513 26950 ft 384 kts 265°
2026-04-27 16:54 55.72483 38.81867 26572 ft 378 kts 265°
2026-04-27 16:54 55.72125 38.77319 26071 ft 374 kts 266°
2026-04-27 16:55 55.71764 38.72733 25513 ft 369 kts 266°
2026-04-27 16:55 55.71411 38.68248 24962 ft 364 kts 267°
2026-04-27 16:55 55.71078 38.63859 24424 ft 359 kts 267°
2026-04-27 16:55 55.70752 38.59516 23802 ft 355 kts 267°
2026-04-27 16:56 55.70428 38.55228 23139 ft 351 kts 267°
2026-04-27 16:56 55.70103 38.50957 22586 ft 345 kts 267°
2026-04-27 16:56 55.69785 38.46820 22095 ft 337 kts 268°
2026-04-27 16:56 55.69471 38.42725 21625 ft 333 kts 267°
2026-04-27 16:57 55.69162 38.38635 21168 ft 336 kts 268°
2026-04-27 16:57 55.68850 38.34526 20693 ft 337 kts 266°
2026-04-27 16:57 55.68535 38.30476 20227 ft 330 kts 266°
2026-04-27 16:57 55.68224 38.26504 19752 ft 323 kts 266°
2026-04-27 16:58 55.67916 38.22551 19341 ft 320 kts 266°
2026-04-27 16:58 55.67607 38.18663 19306 ft 323 kts 266°
2026-04-27 16:58 55.67289 38.14693 19296 ft 329 kts 266°
2026-04-27 16:58 55.66959 38.10656 19304 ft 331 kts 266°
2026-04-27 16:59 55.66628 38.06609 19305 ft 328 kts 267°
2026-04-27 16:59 55.66307 38.02623 19314 ft 327 kts 268°
2026-04-27 16:59 55.65997 37.98613 19163 ft 333 kts 267°
2026-04-27 16:59 55.65662 37.94534 18774 ft 331 kts 266°
2026-04-27 17:00 55.64928 37.88007 18339 ft 318 kts 259°
2026-04-27 17:00 55.63813 37.83300 18305 ft 305 kts 249°
2026-04-27 17:00 55.62785 37.80060 18058 ft 301 kts 248°
2026-04-27 17:01 55.61749 37.76832 17655 ft 308 kts 247°
2026-04-27 17:01 55.60661 37.73538 17251 ft 311 kts 246°
2026-04-27 17:01 55.59580 37.70266 16859 ft 308 kts 247°
2026-04-27 17:01 55.58512 37.67039 16462 ft 304 kts 247°
2026-04-27 17:02 55.57449 37.63810 16071 ft 301 kts 247°
2026-04-27 17:02 55.56350 37.60697 15678 ft 302 kts 240°
2026-04-27 17:02 55.54809 37.58093 15362 ft 312 kts 219°
2026-04-27 17:02 55.52752 37.56741 15357 ft 324 kts 198°
2026-04-27 17:03 55.50540 37.56118 15155 ft 330 kts 194°
2026-04-27 17:03 55.48233 37.55591 14710 ft 338 kts 194°
2026-04-27 17:03 55.45919 37.55080 14366 ft 333 kts 194°
2026-04-27 17:03 55.43675 37.54582 14355 ft 323 kts 194°
2026-04-27 17:04 55.41421 37.54081 14314 ft 329 kts 194°
2026-04-27 17:04 55.39126 37.53571 14048 ft 334 kts 194°
2026-04-27 17:04 55.36811 37.53076 13636 ft 333 kts 193°
2026-04-27 17:04 55.34507 37.52832 13380 ft 329 kts 187°
2026-04-27 17:05 55.32263 37.52945 13336 ft 324 kts 184°
2026-04-27 17:05 55.29959 37.53143 13084 ft 332 kts 183°
2026-04-27 17:05 55.27653 37.53355 12710 ft 332 kts 183°
2026-04-27 17:05 55.26112 37.53499 12431 ft 330 kts 183°
2026-04-27 17:06 55.23078 37.53779 12019 ft 323 kts 183°
2026-04-27 17:06 55.20895 37.53898 11831 ft 312 kts 187°
2026-04-27 17:06 55.18720 37.53816 11422 ft 309 kts 189°
2026-04-27 17:06 55.16589 37.53656 11053 ft 307 kts 189°
2026-04-27 17:07 55.14442 37.53498 10706 ft 303 kts 189°
2026-04-27 17:07 55.12362 37.53354 10332 ft 302 kts 189°
2026-04-27 17:07 55.10270 37.53216 10031 ft 297 kts 189°
2026-04-27 17:07 55.08250 37.52957 10016 ft 278 kts 198°
2026-04-27 17:08 55.06509 37.51902 10024 ft 256 kts 221°
2026-04-27 17:08 55.05302 37.49864 10046 ft 235 kts 245°
2026-04-27 17:08 55.04548 37.47380 10050 ft 229 kts 258°
2026-04-27 17:08 55.04129 37.44704 10039 ft 225 kts 265°
2026-04-27 17:09 55.04047 37.42067 10041 ft 215 kts 283°
2026-04-27 17:09 55.04487 37.39610 10046 ft 212 kts 299°
2026-04-27 17:09 55.05358 37.37566 10018 ft 212 kts 317°
2026-04-27 17:09 55.06611 37.36208 9795 ft 212 kts 334°
2026-04-27 17:10 55.08067 37.35668 9486 ft 218 kts 352°
2026-04-27 17:10 55.09573 37.35743 9174 ft 219 kts 355°
2026-04-27 17:10 55.11088 37.35853 8804 ft 219 kts 354°
2026-04-27 17:10 55.12604 37.35946 8531 ft 215 kts 354°
2026-04-27 17:11 55.14069 37.36035 8293 ft 210 kts 354°
2026-04-27 17:11 55.16943 37.36203 7810 ft 202 kts 353°
2026-04-27 17:11 55.18337 37.36284 7569 ft 198 kts 353°
2026-04-27 17:12 55.21080 37.36438 7124 ft 199 kts 353°
2026-04-27 17:12 55.22449 37.36517 6889 ft 197 kts 353°
2026-04-27 17:12 55.23816 37.36602 6665 ft 192 kts 353°
2026-04-27 17:13 55.25118 37.36682 6451 ft 187 kts 353°
2026-04-27 17:13 55.26433 37.36746 6241 ft 193 kts 353°
2026-04-27 17:13 55.27815 37.36819 6041 ft 197 kts 353°
2026-04-27 17:13 55.29164 37.36907 6021 ft 195 kts 353°
2026-04-27 17:14 55.30541 37.36987 6015 ft 197 kts 353°
2026-04-27 17:14 55.31898 37.37125 5881 ft 197 kts 358°
2026-04-27 17:14 55.33266 37.37526 5426 ft 204 kts
2026-04-27 17:14 55.34674 37.37979 5085 ft 202 kts 360°
2026-04-27 17:15 55.36035 37.38410 4858 ft 197 kts 359°
2026-04-27 17:15 55.37373 37.38820 4729 ft 202 kts 359°
2026-04-27 17:15 55.38781 37.39248 4672 ft 205 kts 360°
2026-04-27 17:15 55.40165 37.39689 4598 ft 195 kts 360°
2026-04-27 17:16 55.41495 37.40101 4549 ft 199 kts 359°
2026-04-27 17:16 55.42896 37.40525 4484 ft 203 kts 360°
2026-04-27 17:16 55.44243 37.40962 4413 ft 191 kts 359°
2026-04-27 17:16 55.45528 37.41359 4350 ft 184 kts 358°
2026-04-27 17:17 55.46795 37.41749 4298 ft 185 kts 359°
2026-04-27 17:17 55.48067 37.42137 4185 ft 189 kts 359°
2026-04-27 17:17 55.49369 37.42539 3920 ft 190 kts 359°
2026-04-27 17:18 55.51961 37.43343 3398 ft 190 kts 358°
2026-04-27 17:18 55.53243 37.43747 3146 ft 184 kts 358°
2026-04-27 17:18 55.54456 37.44133 2902 ft 177 kts 358°
2026-04-27 17:18 55.55637 37.44505 2639 ft 171 kts 356°
2026-04-27 17:19 55.56770 37.44857 2499 ft 157 kts 356°
2026-04-27 17:19 55.57768 37.45177 2501 ft 144 kts 355°
2026-04-27 17:19 55.58752 37.45471 2498 ft 146 kts 356°
2026-04-27 17:19 55.59746 37.45782 2492 ft 142 kts 355°
2026-04-27 17:20 55.60726 37.46050 2496 ft 142 kts 349°
2026-04-27 17:20 55.61570 37.45680 2498 ft 114 kts 317°
2026-04-27 17:20 55.62164 37.44907 2484 ft 109 kts 311°
2026-04-27 17:20 55.62553 37.43798 2456 ft 104 kts 290°
2026-04-27 17:21 55.62632 37.42531 2366 ft 108 kts 262°
2026-04-27 17:21 55.62265 37.41330 2281 ft 110 kts 259°
2026-04-27 17:21 55.62197 37.40075 2087 ft 103 kts 275°
2026-04-27 17:21 55.61942 37.38891 1968 ft 109 kts 248°
2026-04-27 17:22 55.61629 37.37745 1798 ft 100 kts 269°
2026-04-27 17:22 55.61572 37.36539 1691 ft 101 kts 261°
2026-04-27 17:22 55.61118 37.35460 1554 ft 118 kts 238°
2026-04-27 17:22 55.60724 37.34309 1367 ft 105 kts 260°
2026-04-27 17:23 55.60522 37.33129 1273 ft 104 kts 259°
2026-04-27 17:23 55.60324 37.31812 1133 ft 111 kts 261°
2026-04-27 17:23 55.60113 37.30513 933 ft 110 kts 257°
2026-04-27 17:23 55.59847 37.29258 753 ft 108 kts 254°
2026-04-27 17:24 55.59587 37.28067 701 ft 99 kts 249°
2026-04-27 17:24 55.59404 37.27248 698 ft 56 kts 250°
2026-04-27 17:24 55.59278 37.26680 698 ft 36 kts 248°
2026-04-27 17:24 55.59207 37.26369 698 ft 25 kts 248°
2026-04-27 17:25 55.59144 37.26087 698 ft 24 kts 249°
2026-04-27 17:25 55.59091 37.25845 698 ft 13 kts 252°
2026-04-27 17:25 55.59108 37.25775 698 ft 4 kts
2026-04-27 17:25 55.59162 37.25819 698 ft 13 kts 24°
2026-04-27 17:26 55.59248 37.25885 698 ft 10 kts 22°
2026-04-27 17:26 55.59261 37.25895 698 ft 0 kts 22°
2026-04-27 17:28 55.59272 37.25903 698 ft 3 kts 24°
2026-04-27 17:29 55.59304 37.25929 698 ft 6 kts 23°
2026-04-27 17:29 55.59355 37.26010 698 ft 14 kts 64°
2026-04-27 17:29 55.59396 37.26185 698 ft 17 kts 68°
2026-04-27 17:29 55.59448 37.26418 698 ft 21 kts 68°
2026-04-27 17:30 55.59501 37.26654 698 ft 15 kts 68°
2026-04-27 17:30 55.59507 37.26677 698 ft 0 kts 68°
2026-04-27 17:31 55.59519 37.26729 698 ft 8 kts 64°
2026-04-27 17:31 55.59563 37.26862 698 ft 16 kts 53°
2026-04-27 17:31 55.59650 37.27029 698 ft 19 kts 46°
2026-04-27 17:32 55.59732 37.27181 698 ft 15 kts 46°
2026-04-27 17:32 55.59880 37.27453 698 ft 14 kts 45°
2026-04-27 17:32 55.59940 37.27568 698 ft 10 kts 54°
2026-04-27 17:33 55.59988 37.27690 698 ft 13 kts 46°
2026-04-27 17:33 55.60051 37.27717 698 ft 8 kts 329°
2026-04-27 17:33 55.60122 37.27654 698 ft 12 kts 340°
2026-04-27 17:33 55.60196 37.27638 698 ft 9 kts 354°
2026-04-27 17:34 55.60255 37.27634 698 ft 7 kts
2026-04-27 17:34 55.60298 37.27640 698 ft 5 kts
2026-04-27 17:34 55.60328 37.27668 698 ft 5 kts 64°
2026-04-27 17:34 55.60332 37.27713 698 ft 1 kts 90°
2026-04-27 17:35 55.60332 37.27735 698 ft 1 kts 94°
2026-04-27 17:35 55.60331 37.27738 698 ft 0 kts 95°